Home > Weather > Arlington > Past weeks

Flag for USA Past Weather in Arlington, Texas, USA — Yesterday and Last 2 Weeks

Now
70 °F

Thundershowers. Overcast.


Feels Like: 71 °F
Forecast: 71 / 85 °F
Wind: 16 mph from South

Location: Arlington Municipal Airport

Current Time: May 30, 2016 at 5:55:39 AM

Latest Report: May 30, 2016 at 4:53 AM


Visibility: 10 mi

Pressure: 29.95 "Hg

Humidity: 79%

Dew Point: 63 °F

Location of ArlingtonLocation

Past Weather in Arlington — Graph

°F

Arlington Temperature Yesterday

Maximum temperature yesterday: 91 °F (at 2:53 PM)
Minimum temperature yesterday: 69 °F (at 5:53 AM)
Average temperature yesterday: 81 °F

High & Low Weather Summary for the Past Weeks

 TemperatureHumidityPressure
High91 °F (May 29, 2:53 PM)90% (May 21, 5:53 AM)30.16 "Hg (May 21, 5:53 AM)
Low59 °F (May 18, 7:53 AM)41% (May 17, 2:53 PM)29.67 "Hg (May 27, 2:53 AM)
Average75 °F71%29.94 "Hg
* Reported May 15 3:53 AM — May 30 3:53 AM, Arlington, Weather by CustomWeather, © 2016

Note: Actual official high and low records may vary slightly from our data, if they occured in-between our weather recording intervals... More about our weather records

Advertising

Arlington Weather History for the Previous 24 Hours

Scroll right to see more
 ConditionsComfort  
Time TempWeatherWind HumidityBarometerVisibility
3:53 AM
Mon, May 30
70 °FThunderstorms. Overcast.10 mph84%30.02 "Hg6 mi
3:04 AM72 °FThunderstorms. Mostly cloudy.15 mph78%30.02 "Hg6 mi
2:53 AM72 °FThundershowers. Mostly cloudy.N/A84%30.01 "Hg8 mi
1:53 AM75 °FPartly cloudy.5 mph69%29.99 "Hg10 mi
12:53 AM73 °FClear.No wind76%29.97 "Hg10 mi
11:53 PM
Sun, May 29
74 °FClear.No wind71%30.00 "Hg10 mi
10:53 PM73 °FLight rain. Passing clouds.12 mph76%30.02 "Hg10 mi
9:53 PM80 °FPassing clouds.10 mph67%29.99 "Hg10 mi
8:53 PM86 °FSunny.3 mph55%29.98 "Hg10 mi
7:53 PM87 °FSunny.9 mph53%29.95 "Hg10 mi
6:53 PM88 °FPassing clouds.13 mph52%29.93 "Hg10 mi
5:53 PM90 °FPassing clouds.13 mph48%29.93 "Hg10 mi
4:53 PM89 °FBroken clouds.12 mph50%29.97 "Hg10 mi
3:53 PM90 °FPassing clouds.10 mph47%30.00 "Hg10 mi
2:53 PM91 °FSunny.13 mph47%30.02 "Hg10 mi
1:53 PM89 °FSunny.7 mph50%30.03 "Hg10 mi
12:53 PM87 °FSunny.7 mph53%30.04 "Hg10 mi
11:53 AM85 °FSunny.7 mph59%30.05 "Hg10 mi
10:53 AM82 °FSunny.7 mph63%30.05 "Hg10 mi
9:53 AM75 °FSunny.3 mph79%30.07 "Hg10 mi
8:53 AM72 °FScattered clouds.7 mph81%30.05 "Hg10 mi
7:53 AM69 °FBroken clouds.N/A87%30.06 "Hg10 mi
7:02 AM69 °FThunderstorms. Mostly cloudy.7 mph84%30.15 "Hg3 mi
5:53 AM69 °FStrong thunderstorms. Mostly cloudy.8 mph81%30.09 "Hg7 mi
5:01 AM78 °FThunderstorms. Mostly cloudy.No wind84%30.08 "Hg10 mi
Weather by CustomWeather, © 2016

See weather overviewHow to use our weather pages